Rifle, CO

4:36 AM MDT on May 24, 2017 (GMT -0600)
Garfield County Regional

Weather History for KRIL - May, 2013

Change the Weather History Date:

Wednesday, May 22, 2013

  Actual Average Record
Temperature  
Mean Temperature 64 °F 58 °F  
Max Temperature 83 °F 76 °F 91 °F (2005)
Min Temperature 44 °F 41 °F 27 °F (1974)
Degree Days  
Heating Degree Days 1 7  
Month to date heating degree days 212 217  
Since 1 July heating degree days 6642 6514  
Cooling Degree Days 0 0  
Month to date cooling degree days 0 0  
Year to date cooling degree days 0 0  
Growing Degree Days 12 (Base 50)    
Moisture  
Dew Point 28 °F    
Average Humidity 38    
Maximum Humidity 65    
Minimum Humidity 10    
Precipitation  
Precipitation 0.00 in 0.05 in 0.47 in (1997)
Month to date precipitation 0.86 1.08  
Year to date precipitation 3.82 4.99  
Sea Level Pressure  
Sea Level Pressure 29.71 in    
Wind  
Wind Speed 8 mph (South)    
Max Wind Speed 23 mph    
Max Gust Speed 29 mph    
Visibility 10 miles    
Events      
T = Trace of Precipitation, MM = Missing Value Source: NWS Daily Summary

Daily Weather History Graph

Daily Weather History Graph

Search for Another Location

Airport or City:

Trip Planner

Search our weather history database for the weather conditions in past years. The results will help you decide how hot, cold, wet, or windy it might be!

Date:

Astronomy

May. 22, 2013 Rise Set
Actual Time 5:50 AM MDT 8:24 PM MDT
Civil Twilight 5:19 AM MDT 8:55 PM MDT
Nautical Twilight 4:41 AM MDT 9:34 PM MDT
Astronomical Twilight 3:58 AM MDT 10:17 PM MDT
Moon 5:51 PM MDT (5/22) 3:56 AM MDT (5/22)
Length of Visible Light 15h 35m
Length of Day
14h 33m
Waxing Gibbous, 92% of the Moon is Illuminated
May 22
Waxing Gibbous
May 24
Full
May 31
Last Quarter
Jun 8
New
Jun 16
First Quarter

Hourly Weather History & Observations

Time (MDT) Temp. Windchill Dew Point Humidity Pressure Visibility Wind Dir Wind Speed Gust Speed Precip Events Conditions
12:53 AM 51.1 °F - 34.0 °F 52% 29.81 in 10.0 mi East 3.5 mph - N/A   Clear
1:53 AM 48.0 °F - 35.1 °F 61% 29.81 in 10.0 mi Calm Calm - N/A   Clear
2:53 AM 44.1 °F 41.5 °F 32.0 °F 63% 29.81 in 10.0 mi SSE 4.6 mph - N/A   Clear
3:53 AM 45.0 °F 41.8 °F 33.1 °F 63% 29.80 in 10.0 mi East 5.8 mph - N/A   Mostly Cloudy
4:53 AM 46.0 °F - 34.0 °F 63% 29.79 in 10.0 mi Calm Calm - N/A   Partly Cloudy
5:53 AM 46.0 °F - 34.0 °F 63% 29.79 in 10.0 mi Calm Calm - N/A   Clear
6:53 AM 46.0 °F 43.9 °F 35.1 °F 66% 29.81 in 10.0 mi SE 4.6 mph - N/A   Partly Cloudy
7:53 AM 51.1 °F - 36.0 °F 56% 29.80 in 10.0 mi Calm Calm - N/A   Clear
8:53 AM 57.9 °F - 36.0 °F 44% 29.78 in 10.0 mi Calm Calm - N/A   Clear
9:53 AM 62.1 °F - 36.0 °F 38% 29.75 in 10.0 mi West 3.5 mph - N/A   Clear
10:53 AM 68.0 °F - 35.1 °F 30% 29.73 in 10.0 mi West 8.1 mph - N/A   Clear
11:53 AM 72.0 °F - 28.9 °F 20% 29.70 in 10.0 mi Variable 4.6 mph - N/A   Clear
12:53 PM 75.9 °F - 27.0 °F 16% 29.68 in 10.0 mi Variable 6.9 mph - N/A   Clear
1:53 PM 75.9 °F - 25.0 °F 15% 29.66 in 10.0 mi West 12.7 mph 17.3 mph N/A   Scattered Clouds
2:53 PM 79.0 °F - 23.0 °F 13% 29.64 in 10.0 mi Variable 3.5 mph - N/A   Partly Cloudy
3:30 PM 78.8 °F - 21.2 °F 12% 29.80 in 10.0 mi SSW 13.8 mph - N/A   Clear
3:53 PM 78.1 °F - 21.9 °F 12% 29.62 in 10.0 mi South 10.4 mph 23.0 mph N/A   Clear
4:53 PM 81.0 °F - 19.9 °F 10% 29.60 in 10.0 mi SSW 17.3 mph 21.9 mph N/A   Clear
5:53 PM 79.0 °F - 18.0 °F 10% 29.60 in 10.0 mi South 11.5 mph - N/A   Clear
6:10 PM 80.6 °F - 17.6 °F 10% 29.77 in 10.0 mi SW 16.1 mph 26.5 mph N/A   Clear
6:53 PM 79.0 °F - 19.0 °F 11% 29.60 in 10.0 mi South 13.8 mph 19.6 mph N/A   Clear
7:53 PM 75.0 °F - 21.9 °F 14% 29.61 in 10.0 mi SSW 5.8 mph - N/A   Clear
8:53 PM 66.0 °F - 26.1 °F 22% 29.62 in 10.0 mi SSE 10.4 mph - N/A   Clear
9:53 PM 64.9 °F - 25.0 °F 22% 29.63 in 10.0 mi SSE 13.8 mph - N/A   Clear
10:53 PM 63.0 °F - 25.0 °F 24% 29.63 in 10.0 mi SSE 13.8 mph - N/A   Clear
11:53 PM 63.0 °F - 25.0 °F 24% 29.62 in 10.0 mi SSE 16.1 mph - N/A   Clear